Location: Aix-en-Ergny
(50.5839°N, 1.9996°E)
Time: 04:09:42
(UTC+00:00)

Cosmos 468 Rocket - Pass Details

Date: 23 October 2019
Orbit: 745 x 779 km, 74.0° (Epoch: 19 November)

Event Time Altitude Azimuth Distance (km) Brightness Sun altitude
Rises 05:04:53 0° 332° (NNW) 3,218 6.9 -13.7°
Reaches altitude 10° 05:07:19 10° 327° (NNW) 2,285 6.1 -13.3°
Maximum altitude 05:12:17 49° 254° (WSW) 958 4.1 -12.5°
Drops below altitude 10° 05:17:12 10° 180° (S) 2,257 6.5 -11.7°
Sets 05:19:36 0° 175° (S) 3,175 7.3 -11.4°
